カタログに戻る

STARLINK-37720

運用中通信SSO
NORAD 69129·PAYLOAD·🇺🇸 United States

打ち上げ May 20, 2026 から Vandenberg Space Force Base

Loading…

次のパス (今後24時間)

TLE

最新Source: CelesTrak SupGP

元期: Sep 14, 2026, 21:32 UTC

1 69129C 26110F   26257.89770833  .00090364  00000+0  28056-2 0  2575
2 69129  97.2852  92.9923 0001676  95.1472 314.3183 15.33387663    13

AllMySatでSTARLINK-37720をリアルタイム追跡

Download on the App Store